[[{"header":{"parameterUnit":"m.s-1","parameterCategory":1,"la1":30.2991,"la2":30.254,"lo1":-89.0895,"lo2":-89.0444,"dy":0.0017,"dx":0.0017,"nx":28,"ny":28,"refTime":"2026-02-01T03:00:00:Z","depth":0,"parameterNumber":2,"parameterNumberName":"U-component_of_WINDS"},"data":[0,0,0,0,0,0,0,0,0,0,0,0,0,0,0,0,0,0,0,0,0,0,0,0,0,0,0,0,0,0,0,0,0,0,0,0,0,0,0,0,0,0,0,0,0,0,0,0,0,0,0,0,0,0,0,0,0,0,2.9045,2.9046,0,2.916,2.9161,2.9162,2.9157,2.9155,2.9154,2.9152,2.9275,2.928,2.9285,0,0,0,0,0,0,0,0,0,0,0,0,0,2.8827,2.8831,2.9045,2.9046,2.9048,2.9159,2.9161,2.9163,2.9157,2.9155,2.9153,2.9151,2.9274,2.9279,2.9285,0,0,0,0,0,0,0,0,0,0,0,0,0,2.893,2.8832,2.9044,2.9058,2.9061,2.9159,2.9161,2.9163,2.9158,2.9155,2.9153,2.9151,2.9272,2.9279,2.9286,2.938,0,0,2.9308,2.9311,0,0,0,0,0,0,0,0,2.8924,2.8938,2.9055,2.9057,2.906,2.9141,2.9129,2.9236,2.9158,2.9121,2.9152,2.9149,2.9233,2.9243,2.927,2.9385,2.9391,2.9308,2.9313,2.9316,2.9318,0,0,0,0,0,0,0,2.8917,2.8933,2.909,2.9057,2.906,2.9061,2.9073,2.9149,2.919,2.9124,2.9124,2.9137,2.9234,2.9263,2.9273,2.9392,2.9308,2.9315,2.9319,2.9322,2.9592,2.9595,0,0,0,0,0,0,2.8906,2.8927,2.9087,2.9094,2.8984,2.9067,2.908,2.9118,2.9189,2.9197,2.9139,2.9137,2.9252,2.9265,2.9277,2.9393,2.9316,2.9323,2.9327,2.9589,2.9593,2.9596,0,0,0,0,0,0,2.8901,2.892,2.9082,2.901,2.9031,2.9073,2.9116,2.9122,2.9151,2.92,2.9208,2.9162,2.9251,2.9267,2.9354,2.9397,2.9326,2.9332,2.9586,2.959,2.9594,2.9623,0,0,0,0,0,0,2.8895,2.8918,2.8953,2.9011,2.9035,2.9155,2.9118,2.9126,2.9163,2.916,2.9223,2.9231,2.925,2.9344,2.9361,2.9406,2.9338,2.9582,2.9588,2.9593,2.9619,2.9628,2.9636,0,0,0,0,0,2.8887,2.8957,2.8955,2.8974,2.9078,2.9157,2.9171,2.919,2.9166,2.9202,2.9234,2.9229,2.9389,2.9352,2.9373,2.942,2.958,2.9586,2.9593,2.9615,2.9626,2.9636,0,0,0,0,0,0,2.8904,2.8965,2.8963,2.9053,2.91,2.9156,2.9202,2.9201,2.9257,2.9253,2.9276,2.929,2.9377,2.9407,2.9365,2.9515,2.9482,2.9493,2.9492,2.9503,2.9512,2.9503,2.9344,0,0,0,0,0,2.8918,2.8976,2.9026,2.9102,2.9125,2.916,2.9195,2.9205,2.9255,2.9276,2.9314,2.9364,2.9426,2.9466,2.9526,2.9624,2.9638,2.9666,2.9675,2.9681,2.9691,2.9746,2.9759,2.9617,2.9617,2.9617,0,0,2.8948,2.8989,2.9024,2.9106,2.9144,2.9204,2.9176,2.9241,2.9287,2.9286,2.937,2.94,2.9458,2.9551,2.9594,2.9579,2.9733,2.969,2.9695,2.97,2.9754,2.9767,2.9779,2.9621,2.9621,2.962,0,0,2.9034,2.907,2.9137,2.9175,2.9232,2.9255,2.9271,2.9328,2.9347,2.9432,2.9432,2.9489,2.9594,2.9636,2.9671,2.9774,2.9772,2.9793,2.9838,2.9892,2.9903,2.9913,2.9951,2.9964,2.9802,2.9802,2.9802,0,2.9065,2.9154,2.9172,2.9237,2.9275,2.9275,2.9345,2.9381,2.9455,2.9482,2.9464,2.9597,2.9636,2.9739,2.9764,2.9792,2.9813,2.9786,2.99,2.991,2.992,2.9956,2.997,2.9804,2.9804,2.9804,2.9804,0,2.919,2.9252,2.93,2.937,2.9412,2.948,2.9509,2.9551,2.9559,2.9584,2.9671,2.9718,2.9788,2.9813,2.9822,2.9919,2.9907,2.9894,2.9861,2.9935,2.9969,2.9983,2.9808,2.9807,2.9806,2.9806,0,0,2.9288,2.9367,2.9385,2.9417,2.9481,2.953,2.9599,2.9665,2.9701,2.9753,2.9812,2.9902,2.989,2.993,2.9944,2.9991,3.0071,2.9972,2.9974,2.9989,3.0182,3.0191,3.0206,3.007,3.0073,3.0075,3.0177,0,2.938,2.9499,2.9518,2.9624,2.9682,2.9685,2.9745,2.9792,2.9818,2.9873,2.9903,2.9967,2.9946,2.9971,3.0017,3.0051,3.011,3.0044,3.0127,3.0129,3.0111,3.0224,3.0234,3.0327,3.019,3.0193,3.0194,0,2.9503,2.9557,2.9668,2.9725,2.975,2.9803,2.9867,2.9919,2.9973,2.9989,3.0034,3.0043,3.0116,3.008,3.0182,3.0137,3.0173,3.0195,3.0199,3.0207,3.0166,3.0236,3.0358,3.0371,3.0216,3.0214,3.0212,0,2.9564,2.9665,2.9744,2.9772,2.984,2.9878,2.9908,2.9959,2.9999,3.0055,3.0081,3.0146,3.0182,3.0233,3.0259,3.0231,3.036,3.0326,3.0377,3.0376,3.0403,3.0401,3.0533,3.0427,3.0426,3.0426,3.0426,0,2.9665,2.9733,2.9773,2.9821,2.9898,2.9921,2.9997,3.0027,3.0073,3.013,3.0137,3.019,3.0222,3.028,3.0302,3.0384,3.04,3.0416,3.0421,3.0415,3.0413,3.0438,3.0432,3.043,3.0429,3.0428,3.0428,0,2.9746,2.9775,2.9862,2.9919,2.9935,2.999,3.004,3.0089,3.0115,3.0187,3.0205,3.0247,3.0317,3.0348,3.0434,3.0449,3.0542,3.0543,3.0523,3.0525,3.0574,3.0569,3.0726,3.0748,3.0627,3.0628,3.0629,0,2.9808,2.986,2.9923,2.996,2.9992,3.0052,3.0092,3.0118,3.0159,3.0226,3.0267,3.0336,3.0393,3.0504,3.0544,3.061,3.0612,3.0663,3.0622,3.0615,3.0613,3.0609,3.0615,3.067,3.0671,3.0672,3.0673,0,2.9915,2.9927,2.9984,3.0046,3.0094,3.0144,3.0194,3.0225,3.0259,3.0306,3.0376,3.042,3.0507,3.0577,3.0646,3.0679,3.0683,3.0685,3.0701,3.0695,3.0681,3.0689,3.0543,3.0681,3.0681,3.068,3.0679,3.0679,2.9989,3.0035,3.0087,3.0151,3.0191,3.0237,3.0286,3.0319,3.0377,3.0449,3.0462,3.0537,3.0592,3.0685,3.0721,3.0781,3.077,3.0792,3.0797,3.0802,3.0805,3.0672,3.0794,3.0794,3.0794,3.0794,3.0794,0,3.0096,3.013,3.0188,3.0257,3.0308,3.0305,3.0361,3.0403,3.0469,3.0519,3.0575,3.0656,3.0724,3.0769,3.0838,3.0878,3.0881,3.0895,3.0892,3.09,3.0811,3.0791,3.0892,3.0892,3.0892,3.0892,3.0891,3.0891,3.0158,3.0237,3.0256,3.0356,3.039,3.0463,3.0495,3.0539,3.0579,3.0669,3.0725,3.0754,3.0803,3.0875,3.0938,3.095,3.0975,3.099,3.1001,3.0917,3.0907,3.0897,3.0878,3.0995,3.0995,3.1085,3.1086,3.1086]},{"header":{"parameterUnit":"m.s-1","parameterCategory":1,"la1":30.2991,"la2":30.254,"lo1":-89.0895,"lo2":-89.0444,"dy":0.0017,"dx":0.0017,"nx":28,"ny":28,"refTime":"2026-02-01T03:00:00:Z","depth":0,"parameterNumber":3,"parameterNumberName":"V-component_of_WINDS"},"data":[0,0,0,0,0,0,0,0,0,0,0,0,0,0,0,0,0,0,0,0,0,0,0,0,0,0,0,0,0,0,0,0,0,0,0,0,0,0,0,0,0,0,0,0,0,0,0,0,0,0,0,0,0,0,0,0,0,0,2.4759,2.476,0,2.4819,2.482,2.4821,2.483,2.4829,2.4829,2.4828,2.4885,2.4887,2.4889,0,0,0,0,0,0,0,0,0,0,0,0,0,2.4647,2.4649,2.4759,2.476,2.4761,2.4819,2.482,2.4821,2.483,2.4829,2.4829,2.4828,2.4885,2.4887,2.4889,0,0,0,0,0,0,0,0,0,0,0,0,0,2.47,2.465,2.4759,2.4772,2.4774,2.4819,2.482,2.4821,2.483,2.4829,2.4828,2.4828,2.4884,2.4887,2.489,2.4924,0,0,2.4899,2.49,0,0,0,0,0,0,0,0,2.4697,2.4704,2.477,2.4772,2.4774,2.4816,2.4801,2.4855,2.483,2.4809,2.4828,2.4827,2.4863,2.4867,2.488,2.4927,2.4929,2.4899,2.4901,2.4902,2.4903,0,0,0,0,0,0,0,2.4693,2.4702,2.4783,2.4771,2.4773,2.4774,2.478,2.4812,2.4839,2.4811,2.4811,2.4819,2.4864,2.4877,2.4882,2.493,2.4899,2.4902,2.4904,2.4905,2.5005,2.5005,0,0,0,0,0,0,2.4688,2.4699,2.4781,2.4785,2.4733,2.4776,2.4784,2.4803,2.4839,2.4844,2.4819,2.4819,2.4873,2.4878,2.4884,2.4925,2.4902,2.4905,2.4907,2.5004,2.5005,2.5006,0,0,0,0,0,0,2.4686,2.4695,2.4778,2.4742,2.4752,2.4779,2.4801,2.4805,2.4819,2.4846,2.485,2.4828,2.4872,2.4879,2.4914,2.4927,2.4907,2.4909,2.5003,2.5004,2.5005,2.5008,0,0,0,0,0,0,2.4682,2.4694,2.4709,2.4742,2.4754,2.4809,2.4802,2.4807,2.4824,2.4824,2.4855,2.486,2.4872,2.4909,2.4917,2.4931,2.4912,2.5002,2.5003,2.5005,2.5006,2.5009,2.5011,0,0,0,0,0,2.4678,2.4707,2.471,2.472,2.4774,2.481,2.4817,2.4832,2.4826,2.4839,2.4856,2.4859,2.4924,2.4913,2.4921,2.4936,2.5001,2.5003,2.5005,2.5005,2.5008,2.5011,0,0,0,0,0,0,2.4674,2.4712,2.4715,2.4756,2.478,2.4812,2.483,2.4835,2.486,2.4858,2.4874,2.4881,2.4914,2.4929,2.4915,2.497,2.4962,2.4965,2.4959,2.4962,2.4964,2.496,2.4914,0,0,0,0,0,2.4678,2.4706,2.4737,2.4769,2.4781,2.4803,2.482,2.4829,2.4854,2.4864,2.4883,2.4906,2.4931,2.4947,2.4973,2.5008,2.5014,2.5023,2.5025,2.5027,2.5029,2.5047,2.5051,2.5012,2.5012,2.5012,0,0,2.4686,2.471,2.4726,2.4769,2.4788,2.4815,2.4812,2.4841,2.486,2.4867,2.4901,2.4916,2.4942,2.4977,2.4993,2.499,2.5041,2.5029,2.503,2.5032,2.505,2.5053,2.5056,2.5013,2.5013,2.5013,0,0,2.4714,2.4736,2.4764,2.4784,2.4814,2.4828,2.4835,2.4866,2.4876,2.4911,2.4916,2.4938,2.4983,2.5,2.5015,2.5048,2.505,2.5055,2.5066,2.5084,2.5087,2.509,2.51,2.5103,2.5058,2.5058,2.5058,0,2.4719,2.4762,2.4778,2.4807,2.4824,2.4833,2.4861,2.4879,2.4915,2.4926,2.4922,2.4976,2.4994,2.5032,2.504,2.5052,2.5059,2.5052,2.5085,2.5088,2.5091,2.5101,2.5105,2.5058,2.5058,2.5058,2.5058,0,2.4766,2.4795,2.4814,2.485,2.487,2.4898,2.4916,2.4934,2.4941,2.4955,2.4988,2.501,2.5039,2.5049,2.5056,2.5087,2.5084,2.5083,2.5075,2.5095,2.5104,2.5108,2.5059,2.5059,2.5059,2.5059,0,0,2.4794,2.4838,2.4844,2.486,2.4893,2.4914,2.4941,2.4971,2.4984,2.5008,2.503,2.5066,2.5065,2.5082,2.509,2.5106,2.5128,2.5102,2.5103,2.5105,2.5162,2.5162,2.5166,2.513,2.5131,2.5131,2.5159,0,2.4825,2.4876,2.489,2.4932,2.4958,2.4966,2.4989,2.501,2.5024,2.5046,2.506,2.5085,2.5082,2.5091,2.5107,2.5122,2.5139,2.512,2.5148,2.5149,2.5141,2.5172,2.5173,2.5198,2.5163,2.5164,2.5164,0,2.4868,2.4894,2.4938,2.4967,2.4978,2.4999,2.5026,2.5047,2.5071,2.5079,2.5097,2.5104,2.513,2.5121,2.5157,2.5143,2.5155,2.5164,2.5165,2.5168,2.5158,2.5174,2.5207,2.521,2.517,2.517,2.517,0,2.4882,2.4928,2.496,2.4973,2.5007,2.5021,2.5035,2.5058,2.5074,2.5097,2.5107,2.5132,2.5146,2.5164,2.5177,2.517,2.521,2.5203,2.5217,2.5216,2.5225,2.5224,2.5259,2.5234,2.5234,2.5234,2.5234,0,2.4915,2.4942,2.4966,2.4986,2.5015,2.5031,2.5059,2.5073,2.5093,2.5114,2.5122,2.5141,2.5157,2.5178,2.5188,2.5214,2.5221,2.5227,2.5229,2.5226,2.5225,2.5233,2.5232,2.5235,2.5234,2.5234,2.5234,0,2.4936,2.4954,2.4989,2.5018,2.5026,2.5046,2.507,2.5088,2.5101,2.5127,2.5134,2.5154,2.5179,2.5193,2.5224,2.5231,2.526,2.5262,2.5252,2.5253,2.5266,2.5264,2.5307,2.5312,2.5284,2.5285,2.5285,0,2.4955,2.4976,2.5007,2.5022,2.5037,2.5062,2.5078,2.5093,2.5109,2.5137,2.5151,2.5176,2.5198,2.5236,2.5252,2.5275,2.5277,2.529,2.528,2.5276,2.5276,2.5274,2.5275,2.5292,2.5292,2.5292,2.5292,0,2.4987,2.4995,2.5019,2.5046,2.5065,2.5087,2.5108,2.5119,2.5138,2.5155,2.5181,2.5197,2.5229,2.5253,2.5277,2.529,2.5294,2.5295,2.53,2.5296,2.5289,2.5292,2.5256,2.5294,2.5294,2.5294,2.5294,2.5294,2.5007,2.5025,2.505,2.5075,2.5093,2.5112,2.5131,2.5146,2.5168,2.5196,2.5203,2.5229,2.525,2.5283,2.5296,2.5316,2.5314,2.532,2.5322,2.5323,2.5322,2.5287,2.532,2.532,2.532,2.532,2.532,0,2.5038,2.5054,2.5078,2.5108,2.5128,2.5131,2.5154,2.5169,2.5193,2.5213,2.5234,2.5262,2.5285,2.5303,2.5326,2.5338,2.534,2.5344,2.5342,2.5345,2.5324,2.5317,2.5341,2.5341,2.5341,2.5341,2.5341,2.5341,2.5057,2.5087,2.5097,2.5135,2.5151,2.5178,2.519,2.5207,2.5223,2.5255,2.5275,2.5287,2.5305,2.5329,2.535,2.5354,2.5362,2.5365,2.5369,2.5349,2.5347,2.5344,2.5338,2.5367,2.5367,2.5389,2.5389,2.5389]}]]